Wind_Speed
21 16 24 20 22 23 21 22 25 25 24 24 24 20 20 20 18 18 18 19 22 19 19 21 20 17 16 13 19 12 16 14 15 13 21 23 25 17 20 18 17 17 17
18 15 12 17 22 22 21 21 20 22 24 26 28 28 25 23 23 20 22 23 24 22 23 22 20 21 18 18 17 18 20 18 17 17 18 19 20 16 16 16 16 16 17
22 20 18 18 22 21 18 20 20 21 22 23 26 27 27 27 28 27 25 26 26 27 26 23 24 23 24 21 20 19 19 19 19 20 18 20 21 19 18 17 17 17 21
25 25 24 22 20 19 21 21 21 22 23 24 24 24 25 26 27 29 30 29 29 28 29 25 26 26 25 24 22 23 22 24 23 22 21 19 17 18 17 18 20 17 17
24 22 22 21 21 22 23 25 23 21 21 24 26 25 24 25 26 27 26 27 28 30 32 31 32 30 29 28 27 28 26 24 24 23 21 20 18 17 22 18 18 20 18
25 26 27 27 26 25 25 26 26 26 25 24 25 27 27 27 25 24 25 26 25 28 30 32 33 33 34 31 31 30 29 29 28 26 24 23 21 21 29 27 21 22 22
26 27 27 27 28 28 27 26 27 27 27 27 27 25 26 29 30 31 31 29 30 31 31 30 30 34 38 38 37 35 34 33 31 29 28 26 25 25 26 25 24 23 25
24 25 24 24 24 25 25 25 25 28 28 28 28 28 27 27 30 29 30 33 35 35 37 36 40 39 35 37 39 39 37 36 36 36 35 31 29 27 28 27 26 26 26
18 19 20 20 19 20 21 23 25 27 29 30 29 29 30 30 33 32 33 36 38 38 37 39 37 32 30 33 37 38 40 40 39 40 37 36 32 30 30 31 29 28 28
13 14 14 15 15 15 16 15 15 15 17 19 21 22 24 27 31 31 32 36 40 38 38 37 31 33 37 37 33 33 36 37 38 40 41 39 35 35 33 33 32 31 31
12 13 13 14 13 13 13 12 11 11 11 12 13 16 18 20 23 25 27 31 34 36 33 37 37 36 32 32 37 39 38 38 39 39 39 38 38 38 37 35 34 34 33
10 11 10 10 11 10 9 10 10 10 11 12 13 14 15 16 19 19 19 20 22 25 24 25 30 34 37 37 37 37 41 43 43 43 40 39 40 38 38 35 34 35 35
7 9 10 9 8 8 10 11 12 12 12 11 12 12 12 12 10 9 12 15 17 18 19 19 21 24 24 25 30 32 33 34 42 46 44 43 43 38 37 34 32 31 32
2 6 8 10 10 10 12 13 13 14 14 13 13 13 12 11 9 8 7 8 8 9 12 15 14 12 7 11 20 25 21 15 19 30 38 37 38 34 34 35 39 41 28
3 5 8 11 12 12 15 15 16 15 15 15 15 15 15 14 11 10 9 7 7 6 6 3 4 6 11 12 17 16 12 14 17 23 21 21 19 27 29 21 11 20 13
7 8 9 11 12 14 16 18 15 14 14 14 15 16 17 17 16 14 14 13 10 8 8 8 10 11 13 12 11 12 15 17 19 18 12 7 7 11 8 11 9 5 4
11 16 15 13 14 16 18 14 13 13 13 14 14 14 14 14 15 15 14 13 12 10 8 8 8 8 8 9 10 11 10 11 11 13 14 7 11 14 9 7 8 6 12
18 20 20 18 16 14 13 13 13 13 12 11 10 10 10 10 10 10 10 10 9 9 7 7 9 10 9 9 10 11 11 12 11 10 10 8 6 4 4 6 7 11 13
19 21 20 20 18 12 13 14 11 11 10 10 9 8 8 9 10 10 11 11 11 11 9 10 9 9 10 10 10 11 10 11 12 12 10 8 8 7 9 9 7 7 7
17 20 20 23 16 13 13 13 11 10 10 9 9 10 10 11 11 12 13 13 13 12 11 10 10 9 9 10 11 12 11 11 11 11 9 9 9 8 7 6 6 6 6
19 19 19 17 16 13 13 12 10 7 7 9 9 12 9 9 8 8 9 11 11 11 10 10 10 10 11 9 7 7 6 6 7 6 7 7 6 6 6 6 7 8 8
18 18 14 14 13 13 12 10 10 9 9 12 14 9 7 4 4 4 4 7 8 8 9 8 10 8 7 6 6 6 5 6 5 6 6 7 8 9 9 10 11 11 12
13 18 14 15 16 16 17 11 10 10 10 11 11 8 7 6 6 7 7 6 7 7 7 6 6 7 7 7 7 7 8 8 9 10 10 11 11 12 12 13 12 13 13
16 17 17 15 16 13 13 14 12 16 13 10 10 7 6 7 7 8 7 7 7 8 8 8 8 9 9 9 9 8 9 10 11 11 11 11 11 11 10 10 10 11 11
17 14 15 14 14 15 13 12 14 14 15 14 10 8 7 7 6 8 9 10 10 11 10 10 10 9 9 8 8 9 9 9 9 9 8 10 10 11 11 11 11 12 14
13 13 13 9 12 15 14 14 12 12 11 10 10 11 11 11 9 9 9 9 9 9 9 8 9 10 11 11 11 10 8 9 9 10 12 12 12 12 13 14 15 16 17
Wind_Direction
232 256 233 234 225 231 232 235 237 238 242 235 240 256 257 251 258 251 251 256 258 258 260 261 266 263 268 255 256 248 256 252 243 217 234 247 268 280 268 284 282 281 295
231 225 227 231 226 232 235 236 237 241 244 249 251 257 256 255 256 253 248 248 258 262 262 264 266 262 259 263 265 260 276 275 270 270 250 265 269 285 274 275 275 283 262
226 229 225 231 231 237 245 247 240 242 243 246 251 254 255 254 257 258 256 254 257 259 262 260 262 264 265 265 268 271 273 267 271 271 271 274 280 279 281 274 274 276 278
230 233 240 243 245 245 249 255 252 249 249 250 252 255 257 259 260 258 261 261 260 263 261 259 258 259 261 264 269 269 264 270 274 276 279 283 287 293 277 281 280 275 274
229 234 241 248 252 255 252 252 257 258 258 256 255 254 255 258 262 266 267 265 263 261 263 266 265 264 262 265 266 268 268 266 267 273 282 289 284 284 287 279 279 274 267
239 245 246 248 252 254 259 257 256 258 257 259 261 257 255 255 258 258 262 264 264 263 260 261 263 265 268 264 260 262 266 267 270 271 275 274 263 255 265 261 279 275 274
240 241 243 245 249 251 257 258 255 256 258 260 261 264 259 259 262 261 263 262 263 266 261 265 268 270 267 265 262 264 265 267 270 270 272 274 275 274 273 276 275 273 278
244 241 242 243 242 247 250 254 255 253 256 261 265 268 270 267 265 265 267 264 269 271 266 273 276 266 264 266 266 266 263 265 268 270 271 273 274 272 272 268 266 269 268
240 236 235 238 241 245 250 254 255 255 256 258 259 260 261 263 266 267 267 268 268 269 268 272 281 257 259 264 263 264 265 263 264 265 267 269 268 269 270 269 267 266 269
224 227 234 240 242 245 249 249 249 249 249 250 253 257 261 263 267 270 267 266 268 270 269 266 270 264 264 266 266 262 263 266 264 267 264 264 264 265 267 268 267 266 267
227 229 230 232 235 238 242 245 246 247 250 256 260 260 262 264 267 269 269 268 268 270 269 267 268 268 269 270 265 266 264 261 265 262 263 264 263 261 264 263 265 266 267
226 222 221 223 229 233 240 247 248 253 257 258 259 262 267 271 274 274 271 272 270 268 265 264 266 268 270 265 268 261 264 264 263 258 260 261 262 263 259 259 265 264 264
217 225 229 234 241 253 262 266 263 257 257 260 261 266 270 273 275 283 289 282 275 265 265 265 270 266 270 271 272 272 277 265 261 261 261 260 257 256 256 254 254 262 265
222 239 244 247 251 264 272 267 266 263 258 253 253 253 255 259 271 286 309 330 323 302 288 280 282 290 326 329 288 272 271 281 272 260 254 252 248 240 248 251 255 258 268
236 251 252 254 258 268 276 280 275 265 252 251 252 251 249 253 261 274 289 306 308 321 340 81 34 351 353 354 11 34 4 316 285 278 270 289 263 251 249 225 220 245 212
264 284 261 256 264 273 279 281 263 250 249 251 253 255 251 253 255 264 274 276 285 285 302 302 309 318 310 313 329 356 11 7 8 358 263 266 121 129 111 114 97 134 161
291 302 289 272 281 288 283 267 249 244 246 248 251 252 252 253 253 256 261 265 264 271 283 286 299 309 317 320 323 325 336 340 348 1 12 82 87 90 87 155 138 220 252
287 293 291 283 286 286 264 250 242 238 240 241 244 243 242 243 246 249 252 252 255 262 286 296 309 313 313 314 316 312 309 306 308 312 312 302 317 273 232 251 254 247 243
289 283 282 282 281 265 249 240 233 247 234 240 235 238 246 246 245 246 247 247 252 267 282 294 290 297 302 306 307 304 300 298 298 299 292 279 277 265 258 263 253 239 235
271 281 285 283 270 246 234 231 229 234 246 233 236 238 241 244 247 251 245 247 258 271 274 281 289 286 291 299 302 302 304 301 294 290 289 288 284 279 273 270 262 257 256
268 272 276 264 257 232 219 219 222 222 232 270 261 229 226 238 243 242 240 240 253 264 273 289 296 298 302 304 296 292 293 299 298 293 289 283 278 276 272 269 268 266 264
274 282 270 236 232 213 211 209 216 206 206 227 231 232 216 209 181 257 233 239 251 267 284 283 292 301 306 307 311 307 303 299 284 273 270 270 269 265 262 262 265 267 268
253 269 258 235 213 216 223 197 208 211 211 214 223 218 215 217 212 225 246 250 259 266 261 267 271 278 284 288 289 289 291 291 289 287 282 276 270 267 268 269 269 270 270
248 252 243 236 211 216 214 193 197 203 197 213 211 238 228 222 227 238 243 247 250 256 260 264 268 270 271 274 277 278 280 282 284 284 281 278 275 273 267 268 265 263 262
231 227 221 227 209 209 205 191 201 218 203 190 210 219 235 244 239 258 259 255 258 260 263 264 261 258 258 267 277 280 286 285 290 292 289 284 278 273 270 265 259 257 259
212 202 214 242 215 232 186 200 213 212 227 219 212 223 223 222 238 244 253 262 264 263 257 260 265 259 273 276 267 275 281 279 282 289 286 283 274 273 271 274 282 288 284
Height
3174 3175 3175 3177 3182 3185 3186 3188 3189 3191 3193 3196 3196 3194 3199 3201 3202 3205 3207 3209 3209 3212 3213 3213 3214 3214 3216 3217 3216 3216 3218 3218 3217 3220 3220 3219 3215 3217 3215 3214 3213 3213 3212
3171 3172 3173 3176 3179 3181 3182 3184 3186 3188 3189 3190 3192 3193 3195 3197 3198 3201 3203 3204 3204 3207 3207 3208 3210 3210 3211 3212 3213 3214 3213 3213 3213 3213 3214 3213 3212 3211 3211 3212 3210 3210 3208
3167 3169 3171 3173 3176 3178 3179 3180 3182 3183 3184 3186 3186 3188 3190 3192 3194 3196 3197 3199 3199 3200 3201 3204 3204 3205 3207 3207 3207 3208 3208 3207 3207 3207 3208 3208 3207 3207 3206 3206 3206 3205 3202
3164 3165 3167 3169 3172 3174 3176 3176 3177 3179 3180 3181 3182 3184 3185 3185 3187 3188 3191 3192 3194 3194 3195 3197 3198 3199 3201 3202 3203 3203 3202 3202 3202 3202 3202 3202 3202 3202 3201 3201 3201 3201 3199
3161 3162 3165 3166 3168 3169 3171 3172 3173 3176 3176 3178 3179 3180 3180 3181 3181 3183 3184 3186 3187 3188 3188 3190 3191 3192 3194 3195 3196 3197 3197 3197 3196 3196 3196 3197 3197 3198 3195 3196 3196 3195 3195
3157 3159 3161 3162 3163 3165 3166 3168 3169 3170 3172 3173 3174 3174 3175 3176 3177 3178 3179 3179 3181 3181 3181 3183 3185 3185 3186 3188 3188 3189 3190 3191 3191 3191 3192 3192 3193 3192 3192 3191 3190 3190 3189
3152 3154 3155 3157 3158 3160 3161 3162 3163 3165 3166 3167 3167 3168 3169 3170 3171 3172 3173 3173 3173 3175 3176 3176 3177 3178 3178 3178 3179 3180 3182 3182 3183 3184 3184 3186 3185 3185 3185 3184 3184 3183 3183
3147 3149 3150 3152 3153 3155 3156 3156 3157 3159 3160 3161 3162 3162 3163 3164 3164 3167 3167 3167 3166 3168 3168 3168 3167 3168 3169 3169 3170 3170 3172 3172 3173 3174 3174 3176 3177 3178 3177 3176 3176 3176 3175
3142 3144 3146 3147 3149 3150 3151 3151 3152 3152 3154 3155 3155 3156 3156 3157 3156 3157 3158 3158 3158 3158 3159 3159 3157 3156 3159 3161 3161 3161 3161 3163 3163 3164 3166 3166 3167 3168 3168 3168 3168 3168 3168
3139 3141 3142 3144 3145 3146 3147 3147 3146 3147 3147 3147 3148 3148 3149 3149 3147 3148 3149 3149 3148 3149 3150 3150 3150 3150 3149 3150 3151 3152 3151 3154 3154 3154 3154 3155 3156 3157 3159 3159 3159 3159 3159
3136 3138 3139 3141 3142 3142 3143 3143 3143 3143 3143 3142 3142 3143 3142 3142 3141 3141 3140 3140 3140 3140 3140 3140 3139 3140 3141 3140 3142 3142 3143 3143 3143 3143 3143 3144 3145 3146 3147 3148 3148 3150 3149
3134 3135 3136 3138 3139 3140 3140 3140 3140 3139 3139 3139 3139 3138 3137 3137 3136 3135 3134 3133 3132 3132 3132 3131 3131 3131 3131 3131 3131 3131 3131 3130 3130 3132 3132 3133 3133 3135 3135 3136 3138 3139 3138
3132 3133 3135 3135 3136 3136 3136 3136 3136 3136 3136 3136 3135 3135 3134 3133 3133 3131 3129 3128 3127 3126 3126 3126 3125 3125 3124 3123 3122 3121 3119 3117 3118 3119 3121 3121 3122 3122 3125 3126 3126 3128 3128
3129 3130 3131 3132 3133 3133 3133 3133 3132 3131 3131 3132 3132 3132 3131 3131 3130 3129 3128 3126 3124 3123 3122 3122 3121 3120 3120 3116 3112 3111 3111 3109 3107 3104 3106 3106 3107 3108 3112 3115 3114 3114 3118
3124 3125 3127 3128 3129 3130 3129 3128 3127 3127 3127 3127 3127 3128 3128 3128 3128 3128 3127 3126 3125 3124 3123 3123 3122 3121 3119 3117 3114 3110 3108 3104 3101 3100 3101 3098 3098 3099 3101 3103 3099 3102 3105
3120 3122 3122 3123 3124 3124 3124 3123 3122 3122 3123 3123 3123 3123 3124 3124 3125 3125 3124 3124 3124 3123 3123 3122 3121 3120 3119 3117 3115 3112 3109 3106 3103 3099 3096 3099 3098 3097 3100 3102 3104 3106 3108
3117 3118 3118 3118 3118 3117 3116 3117 3117 3118 3118 3118 3119 3119 3119 3120 3120 3121 3121 3121 3121 3121 3121 3121 3120 3119 3118 3116 3114 3112 3110 3109 3107 3105 3104 3101 3101 3102 3102 3105 3107 3107 3108
3111 3112 3113 3113 3112 3111 3112 3112 3114 3114 3114 3114 3115 3115 3115 3116 3117 3117 3117 3118 3118 3118 3118 3118 3117 3117 3115 3113 3112 3110 3109 3108 3107 3107 3107 3106 3107 3105 3105 3107 3107 3108 3109
3105 3107 3107 3107 3107 3106 3108 3109 3111 3110 3111 3111 3111 3112 3112 3113 3114 3114 3115 3116 3116 3116 3116 3115 3114 3113 3112 3111 3110 3109 3108 3107 3106 3106 3106 3106 3106 3105 3106 3105 3105 3105 3105
3100 3102 3103 3102 3102 3103 3104 3107 3108 3108 3107 3107 3108 3109 3110 3111 3111 3112 3113 3113 3113 3113 3113 3113 3112 3111 3110 3109 3108 3107 3106 3106 3105 3105 3105 3105 3105 3105 3105 3105 3105 3105 3106
3096 3097 3098 3098 3097 3099 3102 3103 3105 3107 3108 3105 3105 3106 3107 3108 3108 3108 3108 3109 3110 3111 3111 3109 3109 3108 3107 3106 3106 3105 3104 3104 3104 3104 3104 3104 3104 3104 3104 3104 3104 3104 3104
3089 3089 3091 3094 3095 3097 3100 3102 3104 3105 3108 3108 3106 3105 3105 3105 3105 3106 3107 3108 3108 3108 3108 3108 3108 3107 3106 3105 3105 3105 3104 3103 3103 3103 3103 3103 3103 3103 3103 3103 3102 3102 3102
3084 3084 3087 3089 3092 3095 3095 3100 3103 3105 3106 3106 3106 3103 3103 3103 3104 3105 3105 3106 3106 3106 3106 3106 3106 3105 3105 3104 3104 3103 3102 3102 3102 3102 3102 3102 3101 3101 3100 3100 3100 3100 3100
3080 3083 3084 3086 3089 3092 3094 3096 3101 3102 3104 3104 3105 3102 3101 3102 3102 3103 3104 3104 3104 3104 3104 3104 3104 3103 3103 3102 3101 3101 3100 3100 3099 3099 3098 3098 3098 3098 3098 3098 3098 3098 3098
3078 3080 3081 3082 3086 3089 3092 3095 3098 3098 3099 3101 3103 3103 3104 3103 3102 3102 3101 3102 3101 3102 3101 3101 3101 3101 3101 3100 3100 3099 3098 3098 3097 3097 3096 3096 3096 3095 3095 3095 3095 3095 3095
3076 3080 3084 3084 3088 3086 3091 3093 3096 3097 3097 3097 3100 3100 3101 3102 3103 3102 3101 3100 3099 3099 3099 3099 3099 3099 3098 3097 3097 3097 3096 3095 3095 3095 3094 3094 3093 3093 3093 3092 3092 3091 3090